GW3271 Weather Reports


Display with metric or nautical units.
time (UTC)temp
F
wind
direction
speed
MPH
gust
MPH
rain 1hr
in
rain 24hr
in
rain mn
in
humidity
%
barometer
mb
20260906163034 81 0 0.0 0.0 0.09 0.22 0.22 87 1015.6
20260906161534 79 0 0.0 0.0 0.21 0.22 0.22 92 1015.7
20260906160032 77 0 0.0 0.0 0.22 0.22 0.22 89 1015.7
20260906154532 78 0 0.0 1.0 0.21 0.21 0.21 88 1015.6
20260906153033 81 0 0.0 1.0 0.12 0.12 0.12 87 1015.6
20260906151532 82 53 0.0 2.0 0.01 0.01 0.01 82 1015.4
20260906150041 82 79 1.0 3.0 0.00 0.00 0.00 80 1015.2
20260906144535 82 0 0.0 3.0 0.00 0.00 0.00 80 1015.0
20260906143032 82 85 0.0 2.0 0.00 0.00 0.00 81 1015.0
20260906141531 81 65 0.0 3.0 0.00 0.00 0.00 82 1014.9
20260906140033 82 0 0.0 0.0 0.00 0.00 0.00 81 1014.7
20260906134543 81 0 0.0 3.0 0.00 0.00 0.00 82 1014.7
20260906133049 81 91 1.0 4.0 0.00 0.00 0.00 82 1014.5
20260906131536 81 0 0.0 0.0 0.00 0.00 0.00 81 1014.1
20260906130038 81 0 0.0 2.0 0.00 0.00 0.00 82 1013.9
20260906124532 80 84 0.0 1.0 0.00 0.00 0.00 82 1013.8
20260906123036 79 0 0.0 0.0 0.00 0.00 0.00 84 1013.7
20260906121536 79 0 0.0 0.0 0.00 0.00 0.00 83 1013.4
20260906120036 79 0 0.0 0.0 0.00 0.00 0.00 83 1013.0
20260906114536 79 0 0.0 0.0 0.00 0.00 0.00 82 1013.0
20260906113035 79 0 0.0 0.0 0.00 0.00 0.00 82 1012.6
20260906111538 80 0 0.0 0.0 0.00 0.00 0.00 82 1012.3
20260906110034 80 0 0.0 0.0 0.00 0.00 0.00 81 1012.1
20260906104538 81 0 0.0 3.0 0.00 0.00 0.00 80 1012.3
20260906103036 81 0 0.0 3.0 0.00 0.00 0.00 80 1012.2
20260906101533 81 211 0.0 1.0 0.00 0.00 0.00 79 1012.1
20260906100037 81 0 0.0 0.0 0.00 0.00 0.00 79 1012.1
20260906094537 81 0 0.0 1.0 0.00 0.00 0.00 79 1012.2
20260906093032 81 0 0.0 3.0 0.00 0.00 0.00 78 1012.3
20260906091536 81 237 0.0 2.0 0.00 0.00 0.00 78 1012.2
20260906090038 81 0 0.0 1.0 0.00 0.00 0.00 77 1012.2
20260906084536 82 0 0.0 1.0 0.00 0.00 0.00 77 1012.2
20260906083032 82 0 0.0 2.0 0.00 0.00 0.00 76 1012.3
20260906081534 82 0 0.0 4.0 0.00 0.00 0.00 76 1012.3
20260906080039 82 0 0.0 3.0 0.00 0.00 0.00 75 1012.5
20260906074536 83 0 1.0 3.0 0.00 0.00 0.00 75 1012.7
20260906073035 83 229 0.0 3.0 0.00 0.00 0.00 74 1012.8
20260906071533 83 193 1.0 7.0 0.00 0.00 0.00 74 1012.9
20260906070031 84 270 1.0 5.0 0.00 0.00 0.00 73 1013.1
20260906064532 84 235 1.0 7.0 0.00 0.00 0.00 72 1013.2
20260906063035 84 221 2.0 9.0 0.00 0.00 0.00 71 1013.4
20260906061531 85 226 2.0 6.0 0.00 0.00 0.00 71 1013.5
20260906060033 85 269 1.0 5.0 0.00 0.00 0.00 71 1013.6
20260906054533 85 264 1.0 4.0 0.00 0.00 0.00 70 1013.6
20260906053037 85 257 1.0 6.0 0.00 0.00 0.00 70 1013.3
20260906051534 85 239 0.0 5.0 0.00 0.00 0.00 69 1013.5
20260906050035 86 264 1.0 7.0 0.00 0.00 0.00 69 1013.6
20260906044531 86 226 2.0 5.0 0.00 0.00 0.00 68 1013.5
20260906043033 86 278 1.0 4.0 0.00 0.00 0.00 67 1013.5
20260906041533 87 20 0.0 6.0 0.00 0.00 0.00 67 1013.3
20260906040039 87 0 1.0 5.0 0.00 0.00 0.00 66 1013.2
20260906034541 87 10 1.0 5.0 0.00 0.00 0.00 65 1013.4
20260906033032 88 80 2.0 5.0 0.00 0.00 0.00 63 1013.5
20260906031533 88 250 1.0 6.0 0.00 0.00 0.00 60 1013.1
20260906030039 89 82 5.0 11.0 0.00 0.00 0.00 59 1012.9
20260906024533 89 60 4.0 13.0 0.00 0.00 0.00 58 1012.5
20260906023032 90 83 4.0 11.0 0.00 0.00 0.00 57 1012.1
20260906021538 90 120 3.0 11.0 0.00 0.00 0.00 56 1011.7
20260906020043 91 42 3.0 12.0 0.00 0.00 0.00 55 1011.3
20260906014544 91 39 6.0 11.0 0.00 0.00 0.00 55 1011.3
20260906013036 91 68 2.0 10.0 0.00 0.00 0.00 53 1011.3
20260906011535 91 88 2.0 10.0 0.00 0.00 0.00 52 1011.2
20260906010037 92 68 3.0 12.0 0.00 0.00 0.00 52 1011.1
20260906004532 94 70 5.0 11.0 0.00 0.00 0.00 49 1010.9
20260906003035 95 96 4.0 13.0 0.00 0.00 0.00 45 1010.8
20260906001535 96 56 3.0 8.0 0.00 0.00 0.00 44 1010.7
20260906000037 96 92 2.0 10.0 0.00 0.00 0.00 43 1010.6
20260905234535 96 96 4.0 9.0 0.00 0.00 0.00 41 1010.6
20260905233039 97 56 3.0 10.0 0.00 0.00 0.00 41 1010.4
20260905231541 98 68 3.0 6.0 0.00 0.00 0.00 40 1010.4
20260905230041 98 102 3.0 7.0 0.00 0.00 0.00 40 1010.6
20260905224533 100 37 1.0 4.0 0.00 0.00 0.00 38 1010.4
20260905223034 100 208 1.0 4.0 0.00 0.00 0.00 38 1010.4
20260905221537 100 68 2.0 7.0 0.00 0.00 0.00 37 1010.6
20260905220035 100 209 1.0 4.0 0.00 0.00 0.00 36 1010.6
20260905214535 99 107 2.0 10.0 0.00 0.00 0.00 37 1010.7
20260905213036 100 252 1.0 6.0 0.00 0.00 0.00 37 1010.7
20260905211538 100 98 1.0 5.0 0.00 0.00 0.00 36 1010.9
20260905210031 99 0 2.0 6.0 0.00 0.00 0.00 37 1011.1
20260905204534 100 0 0.0 4.0 0.00 0.00 0.00 38 1011.3
20260905203031 100 333 2.0 6.0 0.00 0.00 0.00 37 1011.7
20260905201535 100 346 1.0 6.0 0.00 0.00 0.00 38 1012.0
20260905200036 100 136 0.0 3.0 0.00 0.00 0.00 39 1012.1
20260905194533 98 342 1.0 5.0 0.00 0.00 0.00 41 1012.4
20260905193038 99 269 1.0 6.0 0.00 0.00 0.00 40 1012.7
20260905191533 97 310 3.0 6.0 0.00 0.00 0.00 43 1013.0
20260905190033 97 186 1.0 4.0 0.00 0.00 0.00 44 1013.3
20260905184536 96 259 2.0 6.0 0.00 0.00 0.00 45 1013.5
20260905183033 96 278 1.0 4.0 0.00 0.00 0.00 46 1013.6
20260905181539 95 262 0.0 6.0 0.00 0.00 0.00 47 1013.9
20260905180035 96 346 1.0 4.0 0.00 0.00 0.00 47 1014.3
20260905174535 94 89 1.0 4.0 0.00 0.00 0.00 52 1014.5
20260905173034 93 83 1.0 6.0 0.00 0.00 0.00 52 1014.7
20260905171537 93 0 0.0 6.0 0.00 0.00 0.00 56 1014.8
20260905170037 92 183 1.0 6.0 0.00 0.00 0.00 57 1015.0
20260905164535 91 194 1.0 4.0 0.00 0.00 0.00 59 1015.2